TimeCDT,TemperatureF,Dew PointF,Humidity,Sea Level PressureIn,VisibilityMPH,Wind Direction,Wind SpeedMPH,Gust SpeedMPH,PrecipitationIn,Events,Conditions,WindDirDegrees,DateUTC
12:53 AM,62.1,60.1,93,29.95,10.0,West,5.8,-,N/A,,Clear,270,2013-09-11 05:53:00
1:53 AM,60.1,57.9,93,29.96,10.0,WSW,3.5,-,N/A,,Clear,240,2013-09-11 06:53:00
2:53 AM,60.1,59.0,96,29.97,10.0,West,5.8,-,N/A,,Partly Cloudy,270,2013-09-11 07:53:00
3:53 AM,62.1,60.1,93,29.98,10.0,WNW,5.8,-,N/A,,Clear,290,2013-09-11 08:53:00
4:53 AM,61.0,60.1,97,29.99,10.0,West,4.6,-,N/A,,Clear,270,2013-09-11 09:53:00
5:53 AM,60.1,59.0,96,30.01,9.0,West,5.8,-,0.01,,Clear,280,2013-09-11 10:53:00
6:53 AM,57.9,57.9,100,30.02,5.0,West,4.6,-,N/A,,Clear,270,2013-09-11 11:53:00
7:53 AM,61.0,60.1,97,30.03,7.0,WSW,5.8,-,N/A,,Scattered Clouds,250,2013-09-11 12:53:00
8:13 AM,60.8,60.8,100,30.03,8.0,WSW,5.8,-,N/A,,Mostly Cloudy,250,2013-09-11 13:13:00
8:53 AM,63.0,60.1,90,30.03,10.0,West,6.9,-,N/A,,Mostly Cloudy,270,2013-09-11 13:53:00
9:08 AM,64.4,60.8,88,30.03,10.0,West,6.9,-,N/A,,Partly Cloudy,270,2013-09-11 14:08:00
9:53 AM,68.0,60.1,76,30.02,10.0,Variable,5.8,-,N/A,,Clear,0,2013-09-11 14:53:00
10:53 AM,71.1,59.0,66,30.00,10.0,West,10.4,-,N/A,,Clear,260,2013-09-11 15:53:00
11:53 AM,73.9,61.0,64,29.99,10.0,WSW,9.2,-,N/A,,Clear,240,2013-09-11 16:53:00
12:53 PM,75.9,61.0,60,29.97,10.0,West,11.5,19.6,N/A,,Mostly Cloudy,260,2013-09-11 17:53:00
1:53 PM,79.0,59.0,50,29.97,10.0,West,18.4,23.0,N/A,,Scattered Clouds,260,2013-09-11 18:53:00
2:53 PM,80.1,57.9,47,29.97,10.0,West,17.3,23.0,N/A,,Scattered Clouds,270,2013-09-11 19:53:00
3:53 PM,75.0,57.9,55,29.96,10.0,WNW,8.1,-,N/A,,Overcast,290,2013-09-11 20:53:00
4:53 PM,73.0,57.9,59,29.98,10.0,NW,8.1,20.7,N/A,,Overcast,310,2013-09-11 21:53:00
5:53 PM,71.1,54.0,55,29.99,10.0,NW,5.8,-,N/A,,Scattered Clouds,320,2013-09-11 22:53:00
6:53 PM,68.0,53.1,59,30.01,10.0,NW,6.9,-,N/A,,Clear,310,2013-09-11 23:53:00
7:53 PM,63.0,52.0,67,30.01,10.0,WNW,3.5,-,N/A,,Clear,300,2013-09-12 00:53:00
8:53 PM,54.0,50.0,86,30.02,10.0,West,3.5,-,N/A,,Clear,270,2013-09-12 01:53:00
9:53 PM,50.0,46.9,89,30.01,10.0,West,4.6,-,N/A,,Clear,260,2013-09-12 02:53:00
10:53 PM,50.0,48.0,93,30.02,10.0,West,4.6,-,N/A,,Clear,270,2013-09-12 03:53:00
11:53 PM,61.0,52.0,72,30.02,10.0,NW,9.2,17.3,0.00,,Overcast,310,2013-09-12 04:53:00